Location: Newark
(51.7333°N, 0.4667°E)
Time: 08:16:36
(UTC+00:00)

Envisat - Visible Passes

Search period start: 09 December 2019 00:00
Search period end: 19 December 2019 00:00
Orbit: 764 x 766 km, 98.1° (Epoch: 08 December)

Date Brightness Start Highest point End Pass type
(mag) Time Alt. Az. Time Alt. Az. Time Alt. Az.
09 Dec 6.1 05:19:22 10° ENE 05:21:38 13° E 05:23:54 10° ESE visible
09 Dec 3.2 06:56:25 10° NNE 07:01:32 78° ESE 07:06:37 10° S visible
09 Dec 3.7 16:38:21 10° ESE 16:42:44 30° ENE 16:47:08 10° N visible
09 Dec 3.9 18:16:40 10° S 18:21:35 48° W 18:26:32 10° NNW visible
10 Dec 4.5 06:19:49 10° NNE 06:24:37 40° E 06:29:22 10° SSE visible
10 Dec 2.9 17:39:38 10° SSE 17:44:43 87° ENE 17:49:51 10° NNW visible
10 Dec 5.8 19:21:24 10° WSW 19:24:27 16° W 19:27:31 10° NW visible
11 Dec 5.7 05:43:41 10° NE 05:47:30 21° E 05:51:17 10° SE visible
11 Dec 3.2 17:03:13 10° SE 17:08:03 46° ENE 17:12:54 10° N visible
11 Dec 4.8 18:42:47 10° SSW 18:47:15 30° W 18:51:45 10° NNW visible
12 Dec 6.4 05:09:32 10° ENE 05:10:10 10° E 05:10:48 10° E visible
12 Dec 3.6 06:45:09 10° NNE 06:50:14 64° ESE 06:55:16 10° S visible
12 Dec 3.9 16:27:26 10° ESE 16:31:33 26° ENE 16:35:42 10° N visible
12 Dec 3.6 18:05:15 10° S 18:10:15 59° W 18:15:18 10° NNW visible
13 Dec 4.9 06:08:40 10° NNE 06:13:15 33° E 06:17:49 10° SSE visible
13 Dec 2.9 17:28:23 10° SSE 17:33:27 72° ENE 17:38:33 10° N visible
13 Dec 5.6 19:09:25 10° SW 19:13:02 19° W 19:16:40 10° NW visible
14 Dec 5.9 05:32:46 10° NE 05:36:05 17° E 05:39:22 10° SE visible
14 Dec 3.0 07:10:38 10° NNE 07:15:45 81° WNW 07:20:50 10° SSW visible
14 Dec 3.4 16:52:10 10° SE 16:56:50 38° ENE 17:01:31 10° N visible
14 Dec 4.5 18:31:12 10° SSW 18:35:54 37° W 18:40:37 10° NNW visible
15 Dec 3.9 06:33:55 10° NNE 06:38:54 52° E 06:43:52 10° S visible
15 Dec 3.2 17:53:53 10° S 17:58:57 72° WSW 18:04:03 10° NNW visible
15 Dec 6.1 19:37:05 10° WSW 19:38:54 12° W 19:40:45 10° WNW visible
16 Dec 5.2 05:57:33 10° NE 06:01:53 27° E 06:06:10 10° SSE visible
16 Dec 3.0 17:17:12 10° SSE 17:22:11 60° ENE 17:27:13 10° N visible
16 Dec 5.3 18:57:35 10° SW 19:01:37 23° W 19:05:40 10° NW visible
17 Dec 6.1 05:22:01 10° NE 05:24:38 14° E 05:27:15 10° ESE visible
17 Dec 3.1 06:59:21 10° NNE 07:04:28 84° ESE 07:09:34 10° SSW visible
17 Dec 3.7 16:41:10 10° SE 16:45:38 32° ENE 16:50:07 10° N visible
17 Dec 4.1 18:19:41 10° S 18:24:32 45° W 18:29:26 10° NNW visible
18 Dec 4.3 06:22:42 10° NNE 06:27:34 43° E 06:32:23 10° S visible
18 Dec 3.0 17:42:34 10° SSE 17:47:39 87° WSW 17:52:46 10° NNW visible
18 Dec 5.9 19:24:40 10° WSW 19:27:27 15° W 19:30:15 10° NW visible
